Location: Unspecified
(38.9119°N, 0.0000°E)
Time: 22:36:09
(UTC+00:00)

N. Korean satellite - Visible Passes

Search period start: 22 October 2019 00:00
Search period end: 01 November 2019 00:00
Orbit: 455 x 508 km, 97.2° (Epoch: 21 October)

Date Brightness Start Highest point End Pass type
(mag) Time Alt. Az. Time Alt. Az. Time Alt. Az.
22 Oct 8.0 05:33:42 10° NNE 05:37:12 43° E 05:40:43 10° S visible
22 Oct 8.8 17:41:29 10° SSW 17:44:32 30° W 17:47:37 10° NNW visible
23 Oct 9.6 05:08:59 10° NE 05:11:48 21° E 05:14:37 10° SE visible
25 Oct 6.8 05:51:00 10° NNE 05:54:40 79° ESE 05:58:22 10° S visible
25 Oct 9.8 17:59:39 10° SW 18:02:03 18° W 18:04:29 10° NW visible
26 Oct 8.6 05:25:57 10° NNE 05:29:20 34° E 05:32:44 10° SSE visible
26 Oct 8.2 17:33:23 10° SSW 17:36:36 38° W 17:39:54 10° NNW visible
27 Oct 9.9 05:01:26 10° NE 05:03:54 17° E 05:06:22 10° SE visible
28 Oct 10.4 18:18:48 10° WSW 18:19:36 11° W 18:20:23 10° WNW visible
29 Oct 7.3 05:43:08 10° NNE 05:46:48 61° E 05:50:28 10° S visible
29 Oct 9.4 17:51:19 10° SSW 17:54:05 22° W 17:56:54 10° NW visible
30 Oct 9.0 05:18:11 10° NE 05:21:25 28° E 05:24:38 10° SSE visible
30 Oct 7.6 17:25:18 10° S 17:28:40 50° W 17:32:06 10° NNW visible
31 Oct 10.2 04:53:59 10° ENE 04:55:57 14° E 04:57:54 10° SE visible
